Temperature
16 16 17 17 15 12 14 15 16 17 19 20 20 20 18 18 19 20 20 21 20 20 18 17 17 17 17 16 16 16 16 16 17 17 17 16 16 16 15 16 16 16 16 16 16 15 15 15 15
16 16 17 16 13 13 14 15 16 17 19 19 19 19 18 17 18 19 19 19 20 19 18 18 17 17 17 16 16 16 17 17 17 17 17 16 16 16 16 16 16 16 16 16 16 16 16 15 15
15 16 16 12 12 13 15 16 16 17 19 20 19 18 18 17 18 19 19 19 19 19 18 18 17 17 17 17 16 17 17 17 17 17 17 17 16 16 16 16 16 16 16 16 16 16 16 15 15
15 16 15 12 13 13 15 16 16 17 19 19 18 17 17 17 18 19 19 18 19 19 18 17 17 17 17 17 17 17 17 17 18 17 17 17 16 16 16 16 16 16 16 16 16 16 16 15 15
15 15 12 12 13 14 14 16 17 17 18 18 17 16 17 18 18 19 19 18 18 18 18 17 17 17 17 17 17 17 17 18 18 17 17 17 16 16 16 16 16 16 16 16 16 16 15 15 15
14 13 11 12 13 14 15 16 17 17 18 18 17 16 16 17 18 18 18 18 18 18 17 16 16 16 17 17 17 17 18 18 18 17 17 17 16 16 16 16 16 16 16 16 16 15 15 15 15
13 11 11 12 13 14 15 16 17 16 17 18 17 16 15 17 17 17 17 17 17 17 17 16 16 16 16 17 17 17 18 18 18 17 17 17 17 16 16 16 16 16 16 16 16 15 15 15 15
13 11 12 12 13 15 15 16 16 16 17 17 17 16 16 17 17 16 16 16 16 16 16 16 16 16 16 16 17 17 17 18 18 17 17 17 17 17 17 16 16 16 16 16 16 15 15 15 15
12 11 11 12 13 14 15 15 16 17 17 17 17 17 17 17 16 16 16 16 15 15 15 15 15 15 16 16 16 17 17 17 17 17 17 17 17 17 17 17 17 16 16 16 16 16 15 15 15
11 11 12 13 14 14 14 14 15 16 16 16 16 16 17 16 16 16 16 16 16 15 15 15 15 15 15 16 16 16 17 17 17 17 17 17 17 17 17 17 17 17 16 16 16 16 16 15 15
10 11 12 13 14 14 14 14 15 15 14 15 15 16 16 16 16 16 16 16 16 16 16 15 15 15 15 16 16 16 16 17 17 17 17 17 17 17 17 17 17 16 16 16 16 16 15 15 15
10 11 12 13 14 14 13 13 14 14 15 15 16 16 16 17 17 17 17 17 16 16 16 16 15 15 15 15 16 16 16 16 16 17 17 17 17 17 17 16 16 16 16 16 15 15 15 15 15
10 11 12 13 13 13 13 13 13 14 15 16 16 16 16 16 17 17 17 17 16 16 16 16 16 15 15 15 15 15 15 16 16 16 16 16 16 16 16 16 16 15 15 15 15 15 15 15 14
10 11 12 12 12 12 13 13 13 15 15 16 16 16 16 16 17 17 17 16 16 16 16 16 15 15 15 15 15 15 15 15 15 15 15 15 15 15 15 15 15 15 15 14 14 14 14 14 14
11 10 11 11 11 11 12 12 12 15 15 15 15 16 16 16 16 17 17 17 16 16 16 16 15 15 15 15 15 15 15 15 15 15 15 15 15 15 15 15 15 15 14 14 14 14 14 13 13
10 10 10 10 11 11 12 11 12 14 14 14 15 16 16 16 16 16 16 16 16 16 16 16 15 15 15 15 15 15 15 15 15 15 15 15 15 15 15 15 15 14 14 14 14 13 13 13 13
9 9 9 10 11 11 11 11 12 14 14 14 15 15 16 16 16 16 16 16 16 16 16 16 15 15 15 15 15 15 14 14 14 14 14 14 14 14 14 14 14 14 14 14 13 13 13 13 13
8 8 9 10 10 10 10 11 12 13 13 14 14 15 15 16 16 16 16 16 16 16 16 16 16 15 15 15 15 14 14 14 14 14 14 14 14 14 14 14 14 14 13 13 13 13 13 13 13
8 9 9 10 11 11 10 11 12 12 12 13 13 14 15 16 16 16 16 16 16 16 16 16 16 16 15 15 15 15 15 15 14 14 14 14 14 14 14 14 14 13 13 13 13 13 13 12 12
9 9 9 10 11 11 11 11 12 12 12 13 13 14 15 15 16 16 16 16 16 16 16 16 16 16 15 15 15 15 15 15 14 14 14 14 14 14 14 14 13 13 13 13 13 13 12 12 12
9 8 9 10 10 11 11 11 11 11 12 13 13 14 15 15 16 16 16 16 16 16 16 16 15 15 15 15 15 15 14 14 14 14 14 14 14 14 14 13 13 13 13 13 13 12 12 12 12
9 9 9 10 9 9 10 9 10 10 11 11 12 13 14 15 15 15 15 15 15 15 15 15 15 15 15 15 14 14 14 14 14 14 14 14 13 13 13 13 13 13 13 12 12 12 12 11 11
9 9 9 9 9 8 9 8 9 9 9 10 11 13 14 15 15 15 15 15 14 14 14 14 14 14 14 14 14 13 13 13 13 13 13 13 13 13 13 12 12 12 12 12 12 12 11 11 11
8 8 8 7 8 8 8 8 8 8 9 10 11 13 14 15 14 14 14 13 13 13 13 13 13 13 13 13 13 12 12 12 12 12 12 12 12 12 12 11 11 11 11 11 11 11 11 10 10
8 8 7 8 8 7 7 8 8 9 9 9 11 12 13 13 13 13 13 13 13 13 12 12 12 12 12 12 12 12 11 11 11 11 11 11 11 11 10 10 10 10 10 10 10 10 10 10 10
8 8 7 7 7 6 7 6 8 9 9 10 10 11 12 12 12 12 12 12 12 12 12 11 11 11 11 11 11 10 10 10 10 10 10 10 10 10 9 9 9 9 9 9 9 9 9 9 9
7 7 7 6 6 6 6 6 6 8 8 8 9 9 10 11 11 11 11 11 11 11 11 10 10 10 10 10 10 9 9 9 9 9 9 8 8 8 8 8 9 9 9 9 9 8 8 8 8
7 7 6 6 6 7 7 7 7 9 9 8 7 7 8 9 10 10 11 11 10 10 10 10 10 9 9 9 9 8 8 8 8 8 8 7 7 7 7 7 8 8 8 8 8 8 7 7 7
7 7 7 6 6 6 7 7 8 8 8 7 7 8 8 9 10 10 10 10 10 10 9 9 9 9 8 8 8 7 7 7 7 7 7 7 6 6 7 7 7 7 7 7 7 7 6 6 6
7 7 6 6 6 5 5 7 9 7 6 6 7 8 8 9 10 10 10 10 10 9 9 9 8 8 8 7 7 7 6 6 6 6 6 6 6 6 6 6 6 6 6 6 6 6 6 5 5
Wind_Speed
8 6 3 4 5 4 3 5 4 4 3 2 0 4 8 6 5 3 2 8 10 10 16 19 17 16 15 15 14 14 12 11 11 10 11 11 12 12 12 12 12 12 13 13 14 14 14 14 14
5 3 5 5 5 2 5 5 5 4 2 1 3 4 5 3 1 5 5 7 11 13 16 17 18 17 16 16 15 13 12 11 10 10 10 11 12 12 12 12 12 12 13 13 13 13 13 13 12
3 3 4 5 5 6 5 4 4 5 4 1 2 4 4 3 2 5 5 10 11 11 15 17 18 18 17 16 14 13 11 10 10 10 10 11 12 12 12 12 12 12 12 12 12 12 12 11 11
2 4 5 4 6 6 5 2 3 5 2 2 3 4 3 3 2 5 9 12 12 9 15 18 19 18 18 16 15 13 11 10 10 9 10 11 12 12 12 12 11 11 10 11 11 10 10 10 10
3 4 3 2 6 5 4 4 3 3 2 2 3 4 3 6 4 10 13 14 12 9 14 18 19 18 18 16 14 13 11 10 9 9 10 11 12 12 12 11 10 9 9 9 9 9 9 9 9
3 4 4 6 6 4 3 2 2 2 2 1 4 4 2 2 7 10 12 11 9 8 12 17 19 19 17 16 14 12 11 10 9 9 10 10 11 11 10 10 9 8 7 7 6 6 7 7 7
5 5 6 7 5 4 2 1 2 2 2 0 4 5 2 2 6 9 9 9 8 9 10 13 16 17 17 16 14 12 10 9 9 9 9 10 10 10 9 9 8 6 5 4 4 4 4 5 6
4 5 6 6 7 5 1 2 2 2 1 2 2 6 6 5 8 9 9 8 8 6 7 9 12 14 15 15 14 12 10 9 9 9 10 10 9 9 8 7 6 5 4 3 2 2 2 3 4
4 5 9 10 8 5 1 3 5 2 3 4 4 1 2 11 11 11 9 7 7 7 6 7 9 11 12 13 12 11 10 9 8 8 9 8 7 6 6 6 5 5 4 3 2 2 0 1 2
5 8 11 8 6 5 2 3 4 6 6 5 5 5 5 10 13 13 12 11 10 9 7 6 7 9 10 10 10 9 9 8 8 8 8 7 6 5 4 4 5 4 4 4 4 3 2 1 1
6 8 6 4 4 3 2 2 3 4 3 3 4 1 6 10 13 13 13 12 11 9 8 7 6 8 9 8 8 8 8 8 8 8 9 7 6 5 4 4 4 5 5 5 4 4 4 3 2
4 3 4 3 3 3 2 1 3 1 3 4 4 3 5 11 14 14 14 12 9 9 8 7 7 7 8 8 8 8 7 8 8 9 9 8 6 5 5 5 6 6 6 6 6 5 6 5 5
4 3 3 4 4 3 2 0 3 6 5 4 4 1 5 8 9 8 8 9 8 9 8 8 7 7 7 7 6 7 8 9 10 10 11 11 8 6 7 7 7 8 8 7 7 7 7 7 7
6 4 4 4 4 2 1 2 2 7 4 6 5 3 4 6 7 7 7 8 8 8 8 7 7 7 8 6 6 7 9 9 9 10 12 13 12 9 7 7 8 9 11 11 9 8 7 6 7
6 6 4 3 4 3 3 6 7 9 5 6 6 5 5 4 5 7 8 8 8 7 6 6 7 6 6 6 7 7 9 9 9 10 13 14 13 12 10 7 6 10 12 11 9 8 7 5 6
6 7 6 5 6 5 7 10 11 7 4 8 8 6 5 4 5 5 5 5 6 5 5 5 6 6 6 5 6 7 8 9 9 10 11 13 14 14 11 7 7 11 11 9 5 4 5 6 6
5 7 7 6 8 7 8 8 8 5 6 9 9 7 6 5 4 3 3 3 4 5 5 5 4 5 5 5 5 5 6 6 7 8 8 10 12 13 12 8 9 10 8 7 6 6 5 6 7
9 8 8 8 9 10 11 9 6 7 9 11 10 8 6 6 6 2 0 1 3 3 3 3 3 2 3 2 2 2 2 2 4 5 6 7 8 10 10 8 9 9 5 6 6 7 6 6 6
8 8 7 5 6 9 13 10 8 6 7 10 10 9 8 8 4 1 1 3 4 3 4 3 3 2 2 2 2 2 2 2 2 3 5 5 6 6 7 5 5 6 6 7 7 6 7 6 4
8 8 6 3 4 6 7 8 6 6 8 10 12 11 10 7 4 4 3 2 3 4 4 4 3 3 2 1 1 1 1 1 1 0 1 3 4 4 5 4 4 4 5 6 7 6 4 4 4
5 9 8 6 4 3 4 4 7 8 7 8 9 9 9 10 10 8 6 4 4 4 4 4 4 4 3 2 2 2 2 2 2 2 2 4 4 4 3 4 4 3 4 5 6 6 7 6 4
3 6 7 7 6 1 3 4 8 9 10 12 13 12 11 9 9 8 7 6 5 4 4 5 5 5 4 4 3 2 1 1 1 2 2 4 6 6 5 5 4 3 3 4 5 5 5 6 6
4 5 6 5 5 2 1 3 7 5 10 15 16 14 12 10 11 10 8 7 6 5 5 5 6 6 5 5 4 3 2 0 1 2 3 4 4 6 8 7 5 3 3 3 4 4 4 4 5
6 8 8 6 4 3 6 6 8 7 10 9 10 13 12 11 10 9 7 7 6 5 5 5 6 6 5 6 5 4 3 2 2 3 3 4 3 4 7 8 6 5 3 3 4 3 4 4 5
5 7 4 2 3 6 4 6 10 9 9 9 9 10 10 10 11 11 11 9 7 7 6 5 6 6 5 6 6 5 4 3 3 2 3 3 3 4 6 6 5 5 5 5 4 3 3 3 3
5 7 6 6 6 3 3 8 9 8 6 8 9 8 7 9 11 12 11 10 8 8 6 6 6 5 5 5 5 5 5 3 3 3 3 3 3 3 5 5 6 6 7 6 4 3 3 3 3
6 3 4 5 3 2 6 7 10 7 7 6 6 6 8 10 10 10 9 8 8 8 6 6 6 5 5 5 5 5 5 5 4 4 4 4 4 3 5 5 5 6 7 6 5 4 5 4 5
4 7 5 5 5 4 6 6 5 7 7 7 5 6 7 8 9 9 8 8 7 6 6 6 6 6 4 4 4 4 5 5 5 5 5 5 5 5 5 6 6 6 7 7 6 6 6 7 7
4 4 4 4 4 5 4 7 6 7 7 9 8 7 8 9 9 9 8 7 7 6 6 6 6 6 5 5 5 5 5 5 5 5 5 5 5 5 6 6 6 7 8 7 7 8 8 8 8
4 6 7 5 4 4 4 8 5 5 8 8 7 6 7 8 7 7 8 7 7 7 6 6 5 5 5 5 5 5 5 5 5 5 5 5 5 5 6 6 7 8 8 8 8 9 9 9 9
Wind_Direction
336 349 44 54 58 61 229 244 241 277 247 270 323 133 140 142 164 178 118 143 138 145 154 152 153 149 145 139 132 128 124 120 118 117 117 118 115 111 107 101 94 91 89 89 89 90 92 92 92
335 2 51 63 103 155 253 247 245 246 280 57 60 84 89 79 70 113 135 154 144 147 150 151 151 147 142 137 134 130 127 124 122 122 124 124 121 115 111 105 99 96 93 92 92 93 93 93 92
330 37 83 88 138 183 229 234 244 288 285 201 71 55 93 94 140 156 161 151 140 142 146 150 148 145 141 138 136 132 129 127 126 127 129 130 127 121 116 109 105 101 98 97 96 95 93 90 89
60 58 64 108 194 213 221 262 307 328 354 100 113 77 63 8 226 159 141 145 137 135 144 150 146 144 141 141 140 136 133 131 131 134 134 133 133 126 120 114 111 108 105 103 100 96 92 86 83
67 97 107 165 219 240 245 273 304 340 322 57 112 110 30 352 81 128 139 145 142 138 145 150 147 146 145 144 143 140 137 137 138 138 138 134 132 127 123 121 119 115 111 109 105 100 93 85 81
93 100 148 200 223 254 265 284 347 0 332 84 117 100 32 27 121 134 139 141 139 139 145 151 150 148 147 147 146 145 143 143 143 142 138 133 132 130 131 130 128 124 120 116 110 102 93 85 80
145 150 180 185 200 238 258 332 67 6 355 252 143 109 103 119 135 128 127 129 128 136 142 149 151 150 150 149 150 151 150 147 145 145 139 134 134 138 143 142 141 140 136 128 117 103 90 81 77
153 151 169 179 184 212 268 34 49 29 330 353 86 145 170 174 139 119 118 123 129 128 135 142 147 149 150 152 155 156 157 154 149 145 142 139 141 145 150 153 156 159 160 156 147 126 88 69 69
129 166 191 188 185 190 110 51 360 353 55 26 11 343 189 139 134 130 131 136 148 150 145 143 144 146 149 153 159 161 163 162 156 151 151 147 147 152 159 168 175 182 189 197 213 231 269 46 53
161 196 204 189 172 157 113 72 17 25 22 30 18 19 103 140 149 153 158 163 168 170 166 156 153 151 152 154 157 162 166 168 166 165 163 164 167 173 180 195 205 213 221 229 246 258 270 304 359
173 200 196 182 166 134 94 37 37 50 18 34 337 285 152 161 164 168 171 173 177 175 174 171 164 160 158 153 157 165 171 176 180 183 182 182 185 194 203 215 229 236 239 245 262 277 276 276 278
170 208 173 159 132 115 106 14 8 40 249 306 295 223 179 180 180 180 179 179 176 176 182 177 171 168 169 164 169 175 179 185 193 198 197 191 193 206 216 222 230 233 236 239 248 257 264 268 269
186 170 160 135 116 122 105 138 303 284 287 344 3 118 194 195 196 186 181 177 175 183 187 183 175 175 176 173 180 187 195 199 204 205 207 205 203 211 220 228 232 234 234 234 238 245 254 261 266
181 157 141 130 126 129 122 297 307 273 331 348 340 295 239 212 201 183 177 181 185 188 188 182 183 184 181 182 189 195 202 208 209 212 215 215 215 217 219 227 231 234 233 233 234 238 243 252 258
140 137 131 155 143 132 100 277 247 260 315 311 301 292 276 245 220 205 193 187 187 186 182 182 187 182 185 193 200 203 207 209 212 220 222 219 220 222 222 225 230 236 237 236 237 243 242 248 249
121 137 169 192 159 146 156 237 248 254 265 275 281 283 276 270 242 231 204 190 184 178 178 185 190 182 191 196 202 206 209 211 220 226 227 225 225 226 223 225 233 237 234 227 226 227 237 243 242
145 167 176 179 176 159 175 229 244 223 224 247 257 257 258 270 271 256 223 193 177 175 173 174 180 179 193 198 199 202 204 211 223 228 231 233 232 230 225 230 235 232 225 223 227 227 222 240 243
171 161 165 180 179 171 192 221 233 202 211 234 244 246 244 244 252 265 318 103 105 115 134 146 148 158 174 173 171 184 200 217 224 226 234 237 236 233 228 233 234 225 221 227 226 234 228 235 245
138 140 156 178 174 176 200 215 225 204 214 232 236 237 235 236 245 243 108 110 102 88 100 109 117 101 113 123 150 177 212 218 221 229 239 243 244 239 229 237 234 220 225 233 228 230 237 242 226
138 143 148 135 150 169 196 223 233 217 215 226 229 227 226 219 213 196 173 122 116 112 100 94 91 81 84 121 140 154 159 187 209 290 297 285 272 259 243 242 242 231 235 240 236 225 232 235 196
156 161 156 142 109 89 127 245 238 241 228 232 236 230 223 210 205 196 180 155 130 117 112 106 91 76 57 58 85 68 56 32 17 4 355 351 342 324 293 274 261 250 237 245 244 231 231 244 226
155 167 144 134 129 176 164 233 249 230 237 234 233 230 224 212 196 191 181 164 148 132 111 99 88 73 54 53 81 114 138 200 336 345 343 350 7 5 355 335 311 289 268 260 259 246 237 239 247
139 129 120 124 124 110 179 211 271 226 234 236 231 226 222 208 193 187 180 162 140 127 113 100 88 70 56 57 72 90 91 75 350 359 1 4 10 17 11 2 350 331 304 288 280 272 254 242 245
123 90 68 62 89 230 208 195 266 226 222 235 231 224 216 201 187 173 156 141 129 119 109 103 93 74 60 63 64 79 88 67 40 17 6 3 3 9 11 6 4 354 340 321 302 286 272 262 255
119 115 105 122 196 241 198 207 248 242 228 227 240 235 214 190 176 168 161 157 148 136 123 111 102 85 70 70 64 63 72 72 60 30 19 15 9 7 360 3 0 357 350 344 337 325 311 295 277
157 140 155 175 198 245 223 233 254 257 262 256 256 245 203 186 178 173 168 160 153 143 132 121 111 99 83 78 70 58 58 64 55 43 41 33 18 9 0 4 8 6 3 0 359 7 359 358 353
136 142 138 121 117 208 251 279 299 269 269 264 259 224 198 184 175 168 159 155 152 147 141 137 126 112 97 92 86 66 58 59 55 45 44 37 20 19 18 17 19 17 16 14 18 31 23 26 26
137 140 116 129 161 233 272 267 253 281 282 285 259 227 200 174 164 160 159 157 152 145 135 131 128 123 112 100 90 85 66 61 59 56 49 40 28 24 25 27 28 29 28 28 37 42 37 49 42
128 131 133 140 166 180 253 270 231 248 278 278 260 223 191 177 171 167 163 155 146 140 139 135 131 124 115 105 95 88 75 68 65 61 52 45 38 35 38 37 40 42 40 37 47 50 49 55 50
170 170 154 168 212 195 206 268 274 268 280 268 249 205 184 179 172 164 158 153 153 154 153 149 144 136 131 121 109 99 88 80 75 67 59 54 52 46 47 48 52 52 49 47 52 56 56 58 56
Height
1522 1523 1525 1527 1531 1541 1541 1534 1529 1526 1523 1521 1520 1520 1522 1525 1529 1533 1529 1530 1534 1537 1540 1544 1548 1551 1553 1555 1556 1557 1558 1558 1558 1558 1559 1559 1560 1561 1562 1562 1562 1561 1561 1561 1561 1561 1562 1563 1564
1522 1523 1526 1526 1537 1547 1542 1531 1528 1524 1522 1521 1521 1521 1522 1524 1525 1526 1527 1531 1535 1538 1541 1545 1548 1551 1554 1555 1557 1558 1558 1559 1560 1560 1560 1561 1562 1563 1564 1564 1564 1564 1563 1563 1563 1563 1564 1565 1565
1521 1523 1525 1528 1538 1542 1534 1526 1524 1522 1521 1521 1521 1522 1523 1524 1525 1527 1529 1531 1535 1539 1542 1545 1549 1552 1554 1556 1557 1558 1559 1560 1561 1561 1562 1563 1564 1565 1565 1566 1566 1566 1566 1565 1565 1566 1566 1567 1567
1521 1523 1525 1532 1535 1531 1527 1524 1523 1521 1521 1521 1521 1523 1524 1526 1527 1528 1530 1533 1536 1539 1543 1546 1549 1552 1555 1557 1558 1559 1560 1561 1562 1563 1564 1565 1565 1566 1567 1567 1568 1568 1568 1568 1568 1568 1568 1569 1569
1519 1522 1528 1533 1531 1526 1523 1522 1522 1522 1521 1521 1522 1523 1524 1526 1527 1530 1532 1534 1537 1540 1543 1547 1550 1553 1555 1557 1559 1560 1561 1562 1563 1564 1565 1566 1567 1567 1568 1569 1569 1569 1569 1570 1570 1570 1570 1570 1571
1518 1521 1530 1533 1529 1524 1522 1522 1521 1521 1521 1521 1522 1523 1525 1527 1528 1531 1533 1535 1538 1541 1544 1548 1551 1553 1556 1558 1560 1561 1562 1563 1564 1565 1566 1567 1568 1569 1569 1570 1570 1571 1571 1571 1571 1571 1572 1572 1572
1516 1521 1526 1527 1526 1524 1521 1520 1522 1522 1521 1522 1523 1524 1525 1527 1530 1532 1534 1536 1539 1542 1545 1548 1551 1553 1556 1558 1560 1562 1563 1564 1565 1566 1567 1567 1568 1569 1570 1571 1571 1572 1572 1572 1573 1573 1573 1573 1573
1513 1518 1522 1524 1524 1522 1520 1520 1521 1522 1522 1523 1524 1524 1525 1527 1530 1533 1535 1537 1540 1543 1546 1549 1551 1553 1556 1558 1560 1561 1563 1564 1565 1566 1567 1568 1569 1569 1570 1571 1571 1572 1573 1573 1573 1574 1574 1574 1574
1511 1519 1520 1519 1519 1519 1519 1520 1521 1522 1522 1523 1523 1524 1525 1527 1530 1533 1535 1538 1540 1543 1546 1549 1551 1553 1555 1558 1559 1561 1563 1564 1565 1566 1567 1568 1569 1569 1570 1571 1571 1572 1573 1573 1574 1574 1574 1574 1574
1509 1514 1513 1512 1513 1516 1518 1520 1522 1522 1523 1524 1524 1524 1525 1528 1530 1533 1535 1537 1540 1543 1545 1548 1550 1553 1555 1557 1559 1561 1562 1563 1565 1566 1567 1567 1568 1569 1569 1570 1571 1571 1572 1573 1573 1574 1574 1574 1574
1506 1508 1509 1510 1512 1514 1517 1520 1522 1523 1525 1526 1527 1526 1527 1529 1531 1533 1535 1538 1540 1543 1545 1547 1550 1552 1554 1556 1558 1560 1561 1563 1564 1565 1566 1567 1567 1568 1569 1570 1570 1571 1571 1572 1572 1573 1573 1573 1573
1505 1506 1508 1510 1512 1514 1518 1520 1522 1523 1526 1526 1527 1527 1528 1529 1531 1532 1535 1538 1540 1542 1544 1547 1549 1551 1554 1556 1558 1559 1560 1562 1563 1564 1565 1566 1567 1567 1568 1569 1569 1570 1570 1570 1571 1571 1571 1572 1572
1504 1506 1508 1510 1512 1515 1518 1521 1522 1522 1524 1525 1526 1527 1528 1530 1531 1533 1535 1538 1540 1542 1544 1546 1548 1551 1553 1555 1556 1558 1559 1561 1562 1563 1564 1564 1565 1566 1567 1567 1568 1568 1569 1569 1569 1569 1569 1569 1569
1503 1505 1508 1510 1513 1515 1519 1521 1522 1520 1523 1525 1526 1527 1529 1530 1531 1533 1534 1536 1539 1541 1543 1545 1547 1550 1552 1553 1555 1557 1558 1559 1560 1561 1562 1563 1564 1565 1565 1566 1566 1567 1567 1567 1567 1567 1567 1567 1567
1502 1507 1510 1511 1514 1516 1520 1523 1520 1520 1523 1524 1526 1527 1528 1529 1531 1532 1534 1536 1538 1540 1542 1544 1546 1548 1550 1552 1554 1555 1556 1558 1558 1560 1560 1561 1562 1563 1563 1563 1564 1564 1565 1565 1564 1564 1564 1564 1564
1502 1508 1513 1512 1514 1517 1524 1524 1518 1519 1523 1524 1525 1526 1527 1528 1530 1531 1533 1535 1537 1539 1541 1543 1545 1547 1548 1550 1552 1553 1554 1555 1556 1557 1558 1559 1559 1560 1560 1560 1561 1561 1561 1561 1561 1561 1560 1560 1560
1504 1509 1512 1512 1513 1516 1521 1521 1516 1518 1521 1522 1523 1525 1526 1527 1528 1530 1531 1533 1535 1537 1539 1541 1543 1545 1546 1548 1549 1551 1552 1552 1553 1554 1555 1556 1556 1557 1557 1557 1557 1558 1557 1557 1557 1557 1557 1556 1556
1503 1507 1510 1511 1511 1514 1517 1517 1514 1516 1518 1519 1520 1522 1524 1525 1526 1528 1530 1531 1533 1535 1537 1539 1541 1542 1544 1546 1547 1548 1548 1549 1550 1551 1551 1552 1552 1553 1553 1553 1553 1553 1553 1553 1552 1552 1552 1551 1551
1500 1504 1508 1509 1508 1512 1514 1515 1514 1514 1516 1517 1518 1520 1521 1523 1524 1526 1528 1529 1531 1533 1535 1537 1538 1540 1541 1543 1544 1545 1545 1546 1547 1547 1548 1548 1548 1548 1548 1548 1548 1548 1548 1548 1548 1547 1547 1546 1546
1499 1505 1507 1507 1507 1511 1514 1515 1514 1513 1514 1514 1515 1516 1518 1519 1521 1523 1525 1526 1528 1530 1532 1534 1535 1537 1538 1540 1541 1541 1542 1543 1543 1543 1543 1543 1543 1544 1543 1543 1543 1543 1543 1543 1543 1542 1541 1541 1541
1500 1504 1507 1508 1509 1510 1514 1517 1514 1511 1511 1512 1512 1512 1513 1515 1517 1520 1522 1523 1525 1527 1529 1530 1532 1533 1535 1536 1537 1538 1538 1538 1539 1539 1539 1539 1539 1538 1538 1538 1538 1538 1537 1537 1537 1537 1536 1535 1535
1501 1501 1504 1507 1513 1519 1517 1523 1514 1509 1508 1507 1506 1507 1508 1511 1514 1516 1518 1520 1522 1524 1526 1527 1529 1530 1531 1532 1533 1533 1533 1534 1534 1534 1534 1534 1533 1533 1533 1532 1532 1532 1531 1531 1531 1531 1530 1530 1529
1500 1501 1504 1509 1514 1520 1520 1523 1514 1507 1506 1500 1499 1500 1502 1506 1509 1512 1514 1517 1519 1521 1522 1524 1525 1526 1527 1528 1528 1528 1529 1529 1529 1529 1529 1529 1528 1527 1527 1526 1526 1526 1525 1525 1525 1525 1524 1524 1523
1499 1504 1510 1514 1517 1523 1520 1523 1514 1505 1497 1493 1492 1493 1496 1500 1504 1507 1511 1513 1515 1517 1519 1521 1522 1523 1523 1524 1524 1524 1525 1525 1524 1524 1524 1523 1523 1522 1521 1521 1520 1520 1519 1519 1519 1518 1518 1518 1518
1500 1508 1517 1520 1522 1522 1518 1517 1505 1493 1490 1489 1488 1488 1490 1494 1498 1502 1505 1509 1512 1514 1516 1518 1519 1519 1520 1520 1520 1520 1520 1520 1520 1520 1519 1519 1518 1517 1517 1516 1515 1515 1514 1514 1513 1513 1513 1512 1512
1501 1505 1515 1520 1522 1523 1519 1516 1499 1488 1485 1485 1484 1484 1486 1488 1492 1497 1501 1505 1509 1511 1513 1515 1516 1516 1517 1517 1517 1517 1517 1516 1516 1515 1515 1514 1514 1513 1512 1511 1511 1510 1510 1509 1508 1508 1507 1507 1507
1502 1506 1508 1518 1521 1523 1519 1510 1499 1484 1483 1482 1481 1481 1481 1484 1489 1494 1499 1503 1506 1509 1511 1512 1513 1513 1514 1514 1513 1513 1513 1513 1512 1512 1511 1510 1510 1509 1508 1507 1507 1506 1505 1504 1504 1503 1502 1502 1501
1499 1503 1512 1517 1520 1518 1512 1509 1501 1486 1482 1481 1480 1479 1480 1483 1487 1492 1497 1501 1504 1506 1508 1509 1510 1510 1510 1510 1510 1510 1510 1509 1509 1508 1508 1507 1506 1506 1505 1504 1503 1502 1501 1500 1500 1499 1498 1498 1497
1501 1504 1506 1513 1516 1519 1515 1505 1488 1485 1482 1480 1478 1478 1480 1482 1486 1491 1496 1499 1502 1504 1505 1506 1507 1507 1507 1507 1507 1507 1507 1506 1506 1505 1505 1504 1504 1503 1502 1501 1500 1499 1498 1497 1496 1495 1495 1494 1494
1497 1499 1504 1511 1515 1518 1520 1505 1482 1482 1479 1477 1476 1477 1480 1483 1487 1491 1495 1497 1499 1501 1503 1504 1504 1504 1504 1504 1504 1504 1504 1504 1503 1503 1502 1502 1501 1500 1499 1498 1497 1496 1495 1495 1494 1493 1492 1492 1491